This demonstration page uses our WeatherBlox Daily Observations layout. Learn more.

Left ArrowRight Arrow

Hourly Observations for December 31, 2017

Temp ( °F °C ) Dew Point ( °F °C ) Humidity (%) Winds ( mph kmh ) Pressure ( in mb ) Visibility ( mi km ) Precip ( " mm )
12:23 am 00:23 Cloudy 14 -10 1 -17.2 56 56 NNE 12 19 30.48 1032 10 16 0.00 0.00
12:52 am 00:52 Cloudy 13 -10.6 2 -16.7 61 61 NE 13 20 30.41 1030 10 16 0.00 0.00
1:52 am 01:52 Cloudy 13 -10.6 2 -16.7 61 61 NE 14 22 30.43 1030 10 16 0.00 0.00
2:44 am 02:44 Cloudy 12 -11.1 1 -17.2 61 61 N 12 19 30.50 1033 10 16 0.00 0.00
2:52 am 02:52 Cloudy 12 -11.1 1 -17.2 61 61 NNE 14 22 30.45 1031 10 16 0.00 0.00
3:52 am 03:52 Cloudy 11 -11.7 1 -17.2 64 64 NNE 13 20 30.46 1032 10 16 0.00 0.00
4:52 am 04:52 Cloudy 11 -11.7 2 -16.7 67 67 NNE 12 19 30.47 1032 10 16 0.00 0.00
5:52 am 05:52 Cloudy 11 -11.7 2 -16.7 67 67 N 12 19 30.50 1033 10 16 0.00 0.00
6:52 am 06:52 Cloudy 10 -12.2 0 -17.8 63 63 N 15 24 30.52 1034 10 16 0.00 0.00
7:52 am 07:52 Cloudy 10 -12.2 -1 -18.3 61 61 N 14 22 30.56 1035 10 16 0.00 0.00
8:52 am 08:52 Cloudy 10 -12.2 -2 -18.9 58 58 N 15 24 30.59 1036 10 16 0.00 0.00
9:52 am 09:52 Cloudy 11 -11.7 -3 -19.4 53 53 N 14 22 30.62 1037 10 16 0.00 0.00
10:52 am 10:52 Cloudy 13 -10.6 -3 -19.4 49 49 N 10 17 30.64 1038 10 16 0.00 0.00
11:52 am 11:52 Sunny 15 -9.4 -1 -18.3 49 49 NNW 12 19 30.63 1037 10 16 0.00 0.00
12:52 pm 12:52 Sunny 15 -9.4 -4 -20 42 42 NNW 17 28 30.62 1037 10 16 0.00 0.00
1:52 pm 13:52 Sunny 15 -9.4 -3 -19.4 44 44 N 16 26 30.62 1037 10 16 0.00 0.00
2:52 pm 14:52 Sunny 17 -8.3 -2 -18.9 43 43 N 17 28 30.63 1037 10 16 0.00 0.00
3:52 pm 15:52 Sunny 16 -8.9 -1 -18.3 47 47 N 16 26 30.65 1038 10 16 0.00 0.00
4:52 pm 16:52 Sunny 13 -10.6 -1 -18.3 54 54 N 13 20 30.68 1039 10 16 0.00 0.00
5:52 pm 17:52 Clear 11 -11.7 -1 -18.3 58 58 N 18 30 30.69 1039 10 16 0.00 0.00
6:52 pm 18:52 Clear 10 -12.2 -1 -18.3 61 61 N 14 22 30.72 1040 10 16 0.00 0.00
7:52 pm 19:52 Clear 9 -12.8 -1 -18.3 64 64 N 12 19 30.74 1041 10 16 0.00 0.00
8:52 pm 20:52 Clear 8 -13.3 -1 -18.3 66 66 N 10 17 30.76 1042 10 16 0.00 0.00
9:52 pm 21:52 Clear 7 -13.9 -2 -18.9 66 66 N 10 17 30.77 1042 10 16 0.00 0.00
10:52 pm 22:52 Clear 6 -14.4 -2 -18.9 69 69 N 14 22 30.78 1042 10 16 0.00 0.00
11:52 pm 23:52 Clear 5 -15 -3 -19.4 69 69 N 12 19 30.79 1043 10 16 0.00 0.00

Powered by AerisWeather